TimeEST,TemperatureF,Dew PointF,Humidity,Sea Level PressureIn,VisibilityMPH,Wind Direction,Wind SpeedMPH,Gust SpeedMPH,PrecipitationIn,Events,Conditions,WindDirDegrees,DateUTC
12:14 AM,35.6,24.8,65,30.07,10.0,SSW,13.8,20.7,N/A,,Overcast,210,2013-01-06 05:14:00
12:51 AM,35.1,24.1,64,30.07,10.0,SSW,13.8,-,N/A,,Overcast,210,2013-01-06 05:51:00
1:51 AM,35.1,25.0,67,30.06,10.0,SSW,12.7,-,N/A,,Overcast,210,2013-01-06 06:51:00
2:51 AM,34.0,26.1,73,30.06,10.0,SSW,11.5,-,0.00,,Overcast,210,2013-01-06 07:51:00
3:16 AM,35.6,26.6,70,30.02,10.0,SSW,11.5,-,N/A,,Overcast,210,2013-01-06 08:16:00
3:51 AM,35.1,25.0,67,30.04,10.0,SSW,15.0,-,N/A,,Overcast,210,2013-01-06 08:51:00
4:35 AM,35.6,26.6,70,30.01,10.0,SW,10.4,20.7,N/A,,Overcast,220,2013-01-06 09:35:00
4:51 AM,35.1,26.1,70,30.02,10.0,SSW,12.7,-,N/A,,Overcast,210,2013-01-06 09:51:00
5:51 AM,35.1,26.1,70,30.01,10.0,SSW,13.8,-,N/A,,Overcast,200,2013-01-06 10:51:00
6:51 AM,35.1,27.0,72,30.01,10.0,SSW,16.1,23.0,N/A,,Overcast,210,2013-01-06 11:51:00
7:51 AM,35.1,27.0,72,29.99,10.0,SSW,12.7,-,N/A,,Overcast,210,2013-01-06 12:51:00
8:51 AM,35.1,28.0,76,29.99,3.0,SSW,16.1,-,0.00,Snow,Light Snow,210,2013-01-06 13:51:00
8:59 AM,33.8,28.4,81,29.97,2.5,SSW,15.0,-,0.00,Snow,Light Snow,200,2013-01-06 13:59:00
9:39 AM,33.8,28.4,81,29.98,4.0,SSW,13.8,23.0,0.00,Snow,Light Snow,210,2013-01-06 14:39:00
9:51 AM,34.0,28.9,82,30.00,4.0,SSW,15.0,21.9,0.00,Snow,Light Snow,210,2013-01-06 14:51:00
10:51 AM,35.1,28.9,78,30.00,4.0,SSW,11.5,-,0.00,Snow,Light Snow,210,2013-01-06 15:51:00
11:51 AM,35.1,28.9,78,29.97,8.0,SSW,12.7,21.9,0.00,,Overcast,210,2013-01-06 16:51:00
12:51 PM,36.0,28.9,76,29.95,10.0,SW,11.5,20.7,0.00,,Overcast,220,2013-01-06 17:51:00
1:51 PM,36.0,28.9,76,29.94,5.0,SW,10.4,-,0.00,Snow,Light Snow,230,2013-01-06 18:51:00
2:51 PM,35.1,28.9,78,29.96,4.0,SW,10.4,-,0.00,Snow,Light Snow,220,2013-01-06 19:51:00
3:51 PM,35.1,28.9,78,29.98,5.0,SSW,8.1,-,0.00,Snow,Light Snow,210,2013-01-06 20:51:00
4:51 PM,35.1,30.0,82,30.00,5.0,WSW,11.5,19.6,0.02,Snow,Light Snow,250,2013-01-06 21:51:00
5:39 PM,35.6,30.2,81,30.00,5.0,WSW,12.7,24.2,0.00,Snow,Light Snow,250,2013-01-06 22:39:00
5:51 PM,35.1,30.9,85,30.02,5.0,WSW,12.7,21.9,0.01,Snow,Light Snow,250,2013-01-06 22:51:00
6:15 PM,35.6,32.0,87,30.02,4.0,West,13.8,20.7,0.00,Snow,Light Snow,260,2013-01-06 23:15:00
6:43 PM,33.8,30.2,87,30.03,2.5,WSW,10.4,18.4,0.01,Snow,Light Snow,250,2013-01-06 23:43:00
6:51 PM,34.0,32.0,92,30.06,2.5,WSW,9.2,18.4,0.02,Snow,Light Snow,250,2013-01-06 23:51:00
7:34 PM,33.8,32.0,93,30.05,4.0,West,16.1,21.9,0.02,Snow,Light Snow,260,2013-01-07 00:34:00
7:51 PM,34.0,32.0,92,30.08,4.0,WSW,10.4,-,0.02,Snow,Light Snow,250,2013-01-07 00:51:00
8:51 PM,35.1,32.0,89,30.10,5.0,West,10.4,-,0.02,,Overcast,260,2013-01-07 01:51:00
9:12 PM,35.6,32.0,87,30.08,7.0,West,10.4,-,0.00,,Overcast,280,2013-01-07 02:12:00
9:51 PM,35.1,30.9,85,30.12,7.0,WNW,11.5,21.9,0.00,,Overcast,290,2013-01-07 02:51:00
10:51 PM,35.1,30.9,85,30.15,7.0,West,10.4,17.3,N/A,,Overcast,280,2013-01-07 03:51:00
11:51 PM,35.1,30.0,82,30.18,8.0,West,11.5,18.4,N/A,,Overcast,280,2013-01-07 04:51:00